Time,TemperatureF,DewpointF,PressureIn,WindDirection,WindDirectionDegrees,WindSpeedMPH,WindSpeedGustMPH,Humidity,HourlyPrecipIn,Conditions,Clouds,dailyrainin,SoftwareType,DateUTC
2013-06-13 00:52:00,61.0,16.0,-100.00,SE,145,4.0,5.0,17,0.00,,,0.00,,2013-06-13 06:52:00,
2013-06-13 01:01:00,61.0,16.0,-100.00,SE,145,4.0,5.0,17,0.00,,,0.00,,2013-06-13 07:01:00,
2013-06-13 01:11:00,61.0,16.0,-100.00,SE,145,4.0,5.0,17,0.00,,,0.00,,2013-06-13 07:11:00,
2013-06-13 01:22:00,61.0,16.0,-100.00,SE,145,4.0,5.0,17,0.00,,,0.00,,2013-06-13 07:22:00,
2013-06-13 02:01:00,59.0,16.0,-100.00,SW,222,4.0,7.0,18,-99.99,,,0.00,,2013-06-13 08:01:00,
2013-06-13 02:11:00,59.0,16.0,-100.00,SW,222,4.0,7.0,18,-99.99,,,0.00,,2013-06-13 08:11:00,
2013-06-13 02:22:00,59.0,16.0,-100.00,SW,222,4.0,7.0,18,-99.99,,,0.00,,2013-06-13 08:22:00,
2013-06-13 04:53:00,59.0,14.0,-100.00,South,179,8.0,12.0,17,-99.99,,,0.00,,2013-06-13 10:53:00,
2013-06-13 05:02:00,59.0,14.0,-100.00,South,179,8.0,12.0,17,-99.99,,,0.00,,2013-06-13 11:02:00,
2013-06-13 05:11:00,59.0,14.0,-100.00,South,179,8.0,12.0,17,-99.99,,,0.00,,2013-06-13 11:11:00,
2013-06-13 05:23:00,59.0,14.0,-100.00,South,179,8.0,12.0,17,-99.99,,,0.00,,2013-06-13 11:23:00,
2013-06-13 06:01:00,58.0,15.0,-100.00,South,170,8.0,14.0,18,-99.99,,,-99.99,,2013-06-13 12:01:00,
2013-06-13 06:11:00,58.0,15.0,-100.00,South,170,8.0,14.0,18,-99.99,,,-99.99,,2013-06-13 12:11:00,
2013-06-13 06:22:00,58.0,15.0,-100.00,South,170,8.0,14.0,18,-99.99,,,-99.99,,2013-06-13 12:22:00,
2013-06-13 06:52:00,58.0,18.0,-100.00,SSE,158,8.0,12.0,21,-99.99,,,0.00,,2013-06-13 12:52:00,
2013-06-13 07:01:00,58.0,18.0,-100.00,SSE,158,8.0,12.0,21,-99.99,,,0.00,,2013-06-13 13:01:00,
2013-06-13 07:11:00,58.0,18.0,-100.00,SSE,158,8.0,12.0,21,-99.99,,,0.00,,2013-06-13 13:11:00,
2013-06-13 07:21:00,58.0,18.0,-100.00,SSE,158,8.0,12.0,21,-99.99,,,0.00,,2013-06-13 13:21:00,
2013-06-13 08:02:00,61.0,20.0,-100.00,SW,215,6.0,16.0,20,0.00,,,0.00,,2013-06-13 14:02:00,
2013-06-13 08:53:00,62.0,24.0,-100.00,SW,230,3.0,8.0,23,0.00,,,0.00,,2013-06-13 14:53:00,
2013-06-13 09:01:00,62.0,24.0,-100.00,SW,230,3.0,8.0,23,0.00,,,0.00,,2013-06-13 15:01:00,
2013-06-13 09:12:00,62.0,24.0,-100.00,SW,230,3.0,8.0,23,0.00,,,0.00,,2013-06-13 15:12:00,
2013-06-13 09:22:00,62.0,24.0,-100.00,SW,230,3.0,8.0,23,0.00,,,0.00,,2013-06-13 15:22:00,
2013-06-13 10:02:00,65.0,23.0,-100.00,WSW,247,5.0,10.0,20,0.00,,,-99.99,,2013-06-13 16:02:00,
2013-06-13 10:12:00,65.0,23.0,-100.00,WSW,247,5.0,10.0,20,0.00,,,-99.99,,2013-06-13 16:12:00,
2013-06-13 10:22:00,65.0,23.0,-100.00,WSW,247,5.0,10.0,20,0.00,,,-99.99,,2013-06-13 16:22:00,
2013-06-13 12:11:00,69.0,24.0,-100.00,WSW,246,15.0,25.0,18,0.00,,,0.00,,2013-06-13 18:11:00,
2013-06-13 12:22:00,69.0,24.0,-100.00,WSW,246,15.0,25.0,18,0.00,,,0.00,,2013-06-13 18:22:00,
2013-06-13 13:01:00,71.0,24.0,-100.00,WSW,254,16.0,26.0,17,0.00,,,0.00,,2013-06-13 19:01:00,
2013-06-13 13:11:00,71.0,24.0,-100.00,WSW,254,16.0,26.0,17,0.00,,,0.00,,2013-06-13 19:11:00,
2013-06-13 13:22:00,71.0,24.0,-100.00,WSW,254,16.0,26.0,17,0.00,,,0.00,,2013-06-13 19:22:00,
2013-06-13 13:53:00,68.0,23.0,-100.00,WSW,245,16.0,33.0,18,0.00,,,0.00,,2013-06-13 19:53:00,
2013-06-13 14:01:00,68.0,23.0,-100.00,WSW,245,16.0,33.0,18,0.00,,,0.00,,2013-06-13 20:01:00,
2013-06-13 14:22:00,68.0,23.0,-100.00,WSW,245,16.0,33.0,18,0.00,,,0.00,,2013-06-13 20:22:00,
2013-06-13 14:53:00,68.0,23.0,-100.00,SSW,209,11.0,26.0,18,0.00,,,0.00,,2013-06-13 20:53:00,
2013-06-13 15:52:00,67.0,22.0,-100.00,SW,231,18.0,28.0,18,0.00,,,0.00,,2013-06-13 21:52:00,
2013-06-13 16:11:00,67.0,22.0,-100.00,SW,231,18.0,28.0,18,0.00,,,0.00,,2013-06-13 22:11:00,
2013-06-13 16:22:00,67.0,22.0,-100.00,SW,231,18.0,28.0,18,0.00,,,0.00,,2013-06-13 22:22:00,
2013-06-13 16:52:00,70.0,25.0,-100.00,WSW,242,11.0,29.0,18,0.00,,,0.00,,2013-06-13 22:52:00,
2013-06-13 17:02:00,70.0,25.0,-100.00,WSW,242,11.0,29.0,18,0.00,,,0.00,,2013-06-13 23:02:00,
2013-06-13 17:11:00,70.0,25.0,-100.00,WSW,242,11.0,29.0,18,0.00,,,0.00,,2013-06-13 23:11:00,
2013-06-13 17:22:00,70.0,25.0,-100.00,WSW,242,11.0,29.0,18,0.00,,,0.00,,2013-06-13 23:22:00,
2013-06-13 17:52:00,67.0,25.0,-100.00,WSW,255,15.0,21.0,20,0.00,,,0.00,,2013-06-13 23:52:00,
2013-06-13 18:01:00,67.0,25.0,-100.00,WSW,255,15.0,21.0,20,0.00,,,0.00,,2013-06-14 00:01:00,
2013-06-13 18:11:00,67.0,25.0,-100.00,WSW,255,15.0,21.0,20,0.00,,,0.00,,2013-06-14 00:11:00,
2013-06-13 18:22:00,67.0,25.0,-100.00,WSW,255,15.0,21.0,20,0.00,,,0.00,,2013-06-14 00:22:00,
2013-06-13 18:53:00,65.0,24.0,-100.00,SW,230,10.0,17.0,21,0.00,,,0.00,,2013-06-14 00:53:00,
2013-06-13 19:01:00,65.0,24.0,-100.00,SW,230,10.0,17.0,21,0.00,,,0.00,,2013-06-14 01:01:00,
2013-06-13 19:11:00,65.0,24.0,-100.00,SW,230,10.0,17.0,21,0.00,,,0.00,,2013-06-14 01:11:00,
2013-06-13 19:22:00,65.0,24.0,-100.00,SW,230,10.0,17.0,21,0.00,,,0.00,,2013-06-14 01:22:00,
2013-06-13 19:52:00,63.0,25.0,-100.00,SW,215,6.0,18.0,23,0.00,,,0.00,,2013-06-14 01:52:00,
2013-06-13 20:02:00,63.0,25.0,-100.00,SW,215,6.0,18.0,23,0.00,,,0.00,,2013-06-14 02:02:00,
2013-06-13 20:11:00,63.0,25.0,-100.00,SW,215,6.0,18.0,23,0.00,,,0.00,,2013-06-14 02:11:00,
2013-06-13 20:22:00,63.0,25.0,-100.00,SW,215,6.0,18.0,23,0.00,,,0.00,,2013-06-14 02:22:00,
2013-06-13 20:53:00,61.0,23.0,-100.00,SSW,213,6.0,12.0,23,0.00,,,0.00,,2013-06-14 02:53:00,
2013-06-13 21:02:00,61.0,23.0,-100.00,SSW,213,6.0,12.0,23,0.00,,,0.00,,2013-06-14 03:02:00,
2013-06-13 21:11:00,61.0,23.0,-100.00,SSW,213,6.0,12.0,23,0.00,,,0.00,,2013-06-14 03:11:00,
2013-06-13 21:22:00,61.0,23.0,-100.00,SSW,213,6.0,12.0,23,0.00,,,0.00,,2013-06-14 03:22:00,
2013-06-13 21:53:00,60.0,22.0,-100.00,SSW,194,10.0,16.0,23,0.00,,,0.00,,2013-06-14 03:53:00,
2013-06-13 22:01:00,60.0,22.0,-100.00,SSW,194,10.0,16.0,23,0.00,,,0.00,,2013-06-14 04:01:00,
2013-06-13 22:12:00,60.0,22.0,-100.00,SSW,194,10.0,16.0,23,0.00,,,0.00,,2013-06-14 04:12:00,
2013-06-13 22:22:00,60.0,22.0,-100.00,SSW,194,10.0,16.0,23,0.00,,,0.00,,2013-06-14 04:22:00,
2013-06-13 22:53:00,58.0,25.0,-100.00,South,175,14.0,20.0,28,0.00,,,0.00,,2013-06-14 04:53:00,
2013-06-13 23:02:00,58.0,25.0,-100.00,South,175,14.0,20.0,28,0.00,,,0.00,,2013-06-14 05:02:00,
2013-06-13 23:11:00,58.0,25.0,-100.00,South,175,14.0,20.0,28,0.00,,,0.00,,2013-06-14 05:11:00,
2013-06-13 23:22:00,58.0,25.0,-100.00,South,175,14.0,20.0,28,0.00,,,0.00,,2013-06-14 05:22:00,
2013-06-13 23:52:00,57.0,26.0,-100.00,South,185,16.0,25.0,30,0.00,,,0.00,,2013-06-14 05:52:00,